FENGYUN 1C DEB

Satellite information

Favourite Embed

Satellite Type and Status

DEBRISIN ORBIT

Key statistics

Satellite FENGYUN 1C DEB at a glance.

Uptime

9715

Days in orbit

Revolutions

≈ 14.1

Per day

Orbit

SSO

Sun Synchronous Orbit

Inclination

98.2

Latest

Satellite identification and parameters

Extended collection of information and parameters for FENGYUN 1C DEB.

Object identification

Identified? True

Debris? True

Object name: FENGYUN 1C DEB

International designator: 1999-025AJS

Object number (NORAD): 30528

Object ID (CCSDS): 30528

Country: PEOPLES REPUBLIC OF CHINA (PRC)

Current information (Y/N): Y

RCS size: SMALL

Orbital parameters

Period: 101.875 minutes

Inclination: 98.2379 deg

SMA: 7225.582 km

Apoapsis: 951.029 km

Periapsis: 743.865 km

RAAN: 215.7404 deg

Eccentricy: 0.01433547

Argument of periapsis: 227.8175 deg

Mean anomaly: 293.0253 deg

Mean motion: 14.13492414 rev/day

Mean motion (dot): 0.00001035 rev/day2

B* drag term: 0.00051794022 1/REarth

Two-line elements (TLE)

Creation date: Dec. 12, 2025, 10:14 a.m.

Reference frame: TEME

Reference center: EARTH

Epoch: Dec. 12, 2025, 2:11 a.m. UTC

TLE line 0: 0 FENGYUN 1C DEB

TLE line 1: 1 30528U 99025AJS 25346.09141531 .00001035 00000-0 51794-3 0 9995

TLE line 2: 2 30528 98.2379 215.7404 0143355 227.8175 293.0253 14.13492414971288

Live tracking on map

Real-time ground track for satellite FENGYUN 1C DEB.

In-orbit conjunctions

A list of the most updated potential collisions computed for object FENGYUN 1C DEB.

Target Orbit TCA Probability of collision Miss distance Type
FENGYUN 1C DEB SSO 2025-11-27 00:56:14 0.0005119784 57.0 (m) DEBRIS
SL-14 DEB LEO 2024-11-10 04:47:43 0.0001515919 491.0 (m) DEBRIS
SOLRAD 7A LEO 2024-11-03 16:18:25 0.0008667518 136.0 (m) PAYLOAD
FENGYUN 1C DEB SSO 2024-06-17 20:18:49 0.001195877 26.0 (m) DEBRIS

Associated space launch

Chinese polar orbiting meteorological satellite

FENGYUN 1C DEB was lifted into orbit during the mission ‘Long March 4B | Feng Yun 1C’, on board a Long March 4B space rocket.

The launch took place on May 10, 1999, 1:33 a.m. from Launch Complex 7.

For more information about the launch, click the button.

Launch to space Long March 4B | Feng Yun 1C
Long March 4B | Feng Yun 1C

Agency: N/A

Status: Launch Successful

Launch date: May 10, 1999, 1:33 a.m. UTC

Rocket: Long March 4B

Launch pad: Launch Complex 7

Location: Taiyuan Satellite Launch Center, People's Republic of China

...

Latest news about this satellite

There are no fresh news available about this satellite. Check back as we update our databases every day.


Newsletter sign-up

Weekly statistics, charts and insights to help you stay on top of the space industry.